sat.trackr.live / text

‹ back to catalog

KUIPER-00156

NORAD 65775 · 2025-217P

PAYLOAD ACTIVE UNKNOWN

§ Identity

Operator
Country
US
Launch date
2025-09-25
Launch site
AFETR
Launch vehicle
Mass (kg)
RCS (m²)

External: N2YO · Heavens-Above · Gunter

§ Orbital elements

Epoch: 2026-05-25T02:41:32.267328Z

Period
97.30 min
Inclination
51.9035°
Eccentricity
0.0000792
Mean motion
14.79932070 rev/d
Perigee alt
629.0 km
Apogee alt
630.1 km
Semi-major
7,007.7 km
B*
1.0997e-4
RAAN
47.7053°
Arg perigee
101.4410°
Mean anomaly
258.6641°
Rev number
3,643

§ Raw data

KUIPER-001561 65775U 25217P   26145.11217902  .00000617  00000+0  10997-3 0  99902 65775  51.9035  47.7053 0000792 101.4410 258.6641 14.79932070 36430

JSON: /api/v1/satellites/65775 · /tle

For live sub-satellite position, see the globe view (requires WebGL).

§ Visibility from observer

Set your observer location to see the next 7 days of passes ≥ 10°. The values pass through the URL so the page stays shareable.

No JS? Fill the form by hand. The geolocation button needs JavaScript.